Location: Champignolles
(47.0543°N, 4.5663°E)
Time: 11:18:17
(UTC+00:00)

ISS - Pass Details

Date: 06 December 2021
Orbit: 413 x 422 km, 51.6° (Epoch: 19 January)

Event Time Altitude Azimuth Distance (km) Brightness Sun altitude
Rises 18:30:56 0° 285° (WNW) 2,378 1.2 -26.0°
Reaches altitude 10° 18:33:48 10° 258° (WSW) 1,506 0.1 -26.5°
Maximum altitude 18:35:37 14° 226° (SW) 1,288 -0.7 -26.8°
Enters shadow 18:36:21 13° 211° (SSW) 1,325 -0.9 -26.9°
